Flag for Cuba Weather past 2 weeks in Camagüey, Cuba

Now
84 °F

Scattered clouds.


Feels Like: 86 °F
Forecast: N/A
Wind: 18 mph from East

Location: Camaguey Aeropuerto

Current Time: Dec 26, 2014 at 3:53:17 PM

Latest Report: Dec 26, 2014 at 2:50 PM


Visibility: 6 mi

Pressure: 30.04 "Hg

Humidity: 51%

Dew point: 64 °F

Location of CamagüeyLocation

Historic Weather in Camagüey — Graph

°F

Camagüey temperature yesterday

Maximum temperature yesterday: 88 °F (at 1:51 PM)
Minimum temperature yesterday: 68 °F (at 5:50 AM)
Average temperature yesterday: 77 °F

Past Weeks' High & Low Weather Summary

 TemperatureHumidityPressure
High88 °F (Dec 22, 2:50 PM)94% (Dec 19, 1:51 AM)30.18 "Hg (Dec 19, 1:51 AM)
Low63 °F (Dec 14, 12:50 AM)38% (Dec 22, 2:50 PM)29.92 "Hg (Dec 23, 1:50 PM)
Average72 °F74%30.05 "Hg
* Reported Dec 11 1:50 PM — Dec 26 1:50 PM, Camagüey, Weather by CustomWeather, © 2014

Note: Actual official high and low records may vary slightly from our data, if they occured in-between our weather recording intervals... More about our weather records

Advertising

Camagüey weather history for previous 24 hours

 ConditionsComfort  
Time TempWeatherWind HumidityBarometerVisibility
1:50 PM
Dec 26
84 °FScattered clouds.18 mph51%30.07 "Hg6 mi
12:50 PM84 °FScattered clouds.15 mph55%30.07 "Hg6 mi
11:50 AM82 °FPassing clouds.21 mph55%30.12 "Hg6 mi
10:50 AM81 °FPassing clouds.20 mph62%30.15 "Hg6 mi
9:50 AM79 °FPassing clouds.18 mph70%30.15 "Hg6 mi
8:50 AM75 °FPartly sunny.12 mph78%30.15 "Hg6 mi
7:50 AM70 °FPassing clouds.7 mph88%30.12 "Hg5 mi
6:50 AM68 °FFog.7 mph88%30.09 "Hg4 mi
5:50 AM66 °FClear.8 mph94%30.09 "Hg6 mi
4:50 AM68 °FClear.8 mph88%30.07 "Hg6 mi
3:50 AM68 °FClear.8 mph94%30.07 "Hg6 mi
2:50 AM70 °FClear.10 mph88%30.07 "Hg6 mi
1:50 AM70 °FClear.7 mph88%30.09 "Hg6 mi
12:50 AM70 °FClear.7 mph88%30.09 "Hg6 mi
11:50 PM
Dec 25
72 °FClear.9 mph88%30.12 "Hg6 mi
10:50 PM72 °FClear.12 mph88%30.12 "Hg6 mi
9:50 PM72 °FClear.12 mph88%30.12 "Hg6 mi
8:50 PM73 °FClear.10 mph83%30.12 "Hg6 mi
7:54 PM73 °FClear.14 mph83%30.09 "Hg6 mi
6:50 PM75 °FClear.13 mph74%30.09 "Hg6 mi
5:52 PM79 °FClear.13 mph61%30.07 "Hg6 mi
4:56 PM84 °FPassing clouds.12 mph51%30.07 "Hg6 mi
3:56 PM86 °FPassing clouds.10 mph46%30.04 "HgN/A
Weather by CustomWeather, © 2014

See weather overviewHow to use our weather pages